Flag for France Weather past 2 weeks in Ajaccio, Corsica, France

Now
81 °F

Warm.


Feels Like: 84 °F
Forecast: 71 / 82 °F
Wind: 7 mph from Southwest

Location: Ajaccio Airport

Current Time: Aug 31, 2015 at 8:33:07 PM

Latest Report: Aug 31, 2015 at 8:00 PM


Visibility: N/A

Pressure: 29.95 "Hg

Humidity: 70%

Dew point: 70 °F

Location of AjaccioLocation

Historic Weather in Ajaccio — Graph

°F

Ajaccio temperature yesterday

Maximum temperature yesterday: 88 °F (at 3:00 PM)
Minimum temperature yesterday: 63 °F (at 5:00 AM)
Average temperature yesterday: 76 °F

Past Weeks' High & Low Weather Summary

 TemperatureHumidityPressure
High88 °F (Aug 23, 1:00 PM)94% (Aug 24, 4:00 AM)30.15 "Hg (Aug 24, 4:00 AM)
Low59 °F (Aug 26, 6:00 AM)25% (Aug 25, 4:00 PM)29.80 "Hg (Aug 23, 5:00 PM)
Average75 °F66%30.00 "Hg
* Reported Aug 16 7:00 PM — Aug 31 7:30 PM, Ajaccio, Weather by CustomWeather, © 2015

Note: Actual official high and low records may vary slightly from our data, if they occured in-between our weather recording intervals... More about our weather records

Advertising

Ajaccio weather history for previous 24 hours

 ConditionsComfort  
Time TempWeatherWind HumidityBarometerVisibility
7:30 PM
Mon, Aug 31
82 °FSunny.6 mph62%29.95 "Hg10 mi
7:00 PM82 °FSunny.6 mph74%29.95 "Hg10 mi
6:30 PM84 °FPassing clouds.5 mph66%29.98 "HgN/A
6:00 PM84 °FPassing clouds.7 mph66%29.98 "HgN/A
5:30 PM84 °FPassing clouds.9 mph66%29.98 "HgN/A
5:00 PM84 °FPassing clouds.9 mph70%30.01 "HgN/A
4:30 PM84 °FPassing clouds.10 mph66%30.01 "HgN/A
4:00 PM84 °FPassing clouds.10 mph66%30.01 "HgN/A
3:30 PM86 °FPassing clouds.10 mph66%30.04 "HgN/A
3:00 PM84 °FPassing clouds.12 mph70%30.04 "HgN/A
2:30 PM86 °FPassing clouds.12 mph66%30.04 "HgN/A
2:00 PM84 °FPassing clouds.10 mph74%30.04 "HgN/A
1:30 PM84 °FPassing clouds.7 mph70%30.04 "HgN/A
1:00 PM82 °FPassing clouds.8 mph70%30.04 "HgN/A
12:34 PM84 °FPassing clouds.8 mph66%30.04 "HgN/A
12:00 PM84 °FPassing clouds.9 mph58%30.07 "HgN/A
11:30 AM82 °FSunny.9 mph58%30.07 "Hg10 mi
11:00 AM82 °FSunny.9 mph55%30.07 "Hg10 mi
10:30 AM82 °FSunny.7 mph55%30.04 "Hg10 mi
10:00 AM81 °FSunny.5 mph51%30.04 "Hg10 mi
9:30 AM82 °FSunny.3 mph42%30.04 "Hg10 mi
9:00 AM77 °FSunny.3 mph51%30.04 "Hg10 mi
8:30 AM73 °FSunny.6 mph53%30.04 "Hg10 mi
8:00 AM70 °FSunny.6 mph60%30.04 "Hg10 mi
7:30 AM66 °FClear.8 mph64%30.04 "Hg10 mi
7:00 AM68 °FClear.3 mph60%30.04 "Hg10 mi
6:30 AM68 °FClear.7 mph64%30.04 "Hg10 mi
6:00 AM70 °FPassing clouds.6 mph60%30.04 "HgN/A
5:30 AM66 °FClear.6 mph68%30.07 "Hg10 mi
5:00 AM68 °FClear.7 mph64%30.07 "Hg10 mi
4:30 AM68 °FClear.8 mph64%30.07 "Hg10 mi
4:00 AM70 °FClear.7 mph60%30.07 "Hg10 mi
3:30 AM70 °FClear.7 mph60%30.07 "Hg10 mi
3:00 AM70 °FClear.7 mph60%30.07 "Hg10 mi
2:30 AM70 °FClear.6 mph60%30.07 "Hg10 mi
2:00 AM70 °FClear.7 mph60%30.07 "Hg10 mi
1:30 AM70 °FClear.7 mph60%30.07 "Hg10 mi
1:00 AM70 °FClear.6 mph64%30.07 "Hg10 mi
12:30 AM70 °FClear.6 mph64%30.09 "Hg10 mi
12:00 AM73 °FClear.5 mph57%30.09 "Hg10 mi
11:30 PM
Sun, Aug 30
73 °FPassing clouds.6 mph61%30.09 "HgN/A
11:00 PM73 °FPassing clouds.6 mph61%30.09 "HgN/A
10:30 PM75 °FClear.6 mph57%30.09 "Hg10 mi
10:00 PM77 °FClear.5 mph57%30.09 "Hg10 mi
9:30 PM77 °FClear.5 mph65%30.09 "Hg10 mi
9:00 PM79 °FSunny.2 mph74%30.09 "Hg10 mi
8:30 PM81 °FSunny.2 mph58%30.09 "Hg10 mi
8:00 PM81 °FSunny.6 mph66%30.09 "Hg10 mi
Weather by CustomWeather, © 2015

See weather overviewHow to use our weather pages